User: anonymous   Login
Location: Chèvreville
(49.1099°N, 2.8495°E)
Time: 10:19:55
(UTC+00:00)
Language:

Cosmos 1655 Rocket - Orbit

View from above orbital plane
View from above orbital plane
View from above satellite
View from above satellite

Ground track
Ground track

The orbit data is extracted from the following two-line orbital elements,

1 15752U 85041B   23150.92446655  .00000171  00000-0  16797-3 0  9992
2 15752  82.9477 143.0576 0023437 201.5185 158.4987 13.73189623903924
Epoch (UTC): 30 May 2023 22:11:13
Eccentricity: 0.0023437
inclination: 82.9477°
perigee height: 971 km
apogee height: 1005 km
right ascension of ascending node: 143.0576°
argument of perigee: 201.5185°
revolutions per day: 13.73189623
mean anomaly at epoch: 158.4987°
orbit number at epoch: 90392

The dashed part of the orbit path shows where the satellite is in the earth's shadow,  

DLR